Regional Weather Roundup
Issued by NWS Spokane, WA

Home | Current Version | Previous Version | Text Only | Print | Product List | Glossary On
Versions: 1 2 3 4 5 6 7 8 9 10 11 12 13 14 15 16 17 18 19 20 21 22 23 24 25 26 27 28 29 30 31 32 33 34 35 36 37 38 39 40 41 42 43 44 45 46 47 48 49 50
000
NZUS01 KOTX 190110
RWROTX
EASTERN WASHINGTON/NORTHERN IDAHO ROUNDUP
NATIONAL WEATHER SERVICE, SPOKANE WA
600 PM PDT FRI APR 18 2014

Note: "fair" indicated few or no clouds below 12,000 feet with no
significant weather and/or obstructions to visibility.

...NORTHEAST WASHINGTON AND NORTHERN IDAHO PANHANDLE...

CITY           SKY/WX    TMP DP  RH WIND       PRES   REMARKS
SPOKANE INTL   MOSUNNY   53  22  29 SW13G22   29.95F
SPOKANE DOWNTO SUNNY     56  24  29 SW16      29.96F
COEUR D ALENE  FAIR      52  27  37 SW13      29.97S
DEER PARK      CLOUDY    56  22  26 S14       29.94S
SANDPOINT      PTSUNNY   50  28  43 CALM      29.94S

...SOUTHEAST WASHINGTON AND SOUTHERN IDAHO PANHANDLE...

CITY           SKY/WX    TMP DP  RH WIND       PRES   REMARKS
WALLA WALLA    PTSUNNY   58  27  30 SW7       30.01F
PULLMAN/MOSCOW MOSUNNY   50  26  39 W9        30.02F
LEWISTON       PTSUNNY   56  24  29 NW5       30.00R
LOWELL           N/A     52  35  52 VRB3      30.00R

...COLUMBIA BASIN...

CITY           SKY/WX    TMP DP  RH WIND       PRES   REMARKS
EPHRATA        MOSUNNY   58  19  22 NW16      29.95S
MOSES LAKE     PTSUNNY   60  22  23 SW12      29.96S
TRI CITIES     MOSUNNY   63  26  24 W9        29.99F
HERMISTON      SUNNY     61  28  28 W9        29.99F
PENDLETON      SUNNY     58  28  32 NW9       29.99F

...EAST SLOPES CASCADES...

CITY           SKY/WX    TMP DP  RH WIND       PRES   REMARKS
THE DALLES     MOSUNNY   61  34  36 NW8       29.98F
YAKIMA         SUNNY     60  25  26 W8        29.98F
ELLENSBURG     PTSUNNY   53  29  39 NW21      29.99S
WENATCHEE      CLOUDY    56  20  24 NW16      29.97S
OMAK           CLOUDY    62  16  16 W9        29.89S

...SOUTHERN BRITISH COLUMBIA...

CITY           SKY/WX    TMP DP  RH WIND       PRES   REMARKS
PENTICTON      MOSUNNY   57  21  24 SW15      29.94S
CRANBROOK      PTSUNNY   46  27  46 W15G24    29.83R

...WESTERN MONTANA...

CITY           SKY/WX    TMP DP  RH WIND       PRES   REMARKS
MISSOULA       PTSUNNY   48  19  31 W12G25    29.98R

...NEIGHBORING CITIES...

CITY           SKY/WX    TMP DP  RH WIND       PRES   REMARKS
SEATTLE        PTSUNNY   56  33  42 CALM      30.05F
CALGARY        FLURRIES  34  30  86 NW14      29.72R WCI  24



USA.gov is the U.S. government's official web portal to all federal, state and local government web resources and services.